Location: Knowlton
(51.2333°N, 1.2667°E)
Time: 03:40:23
(UTC+00:00)

Cosmos 1190 Rocket - Pass Details

Date: 18 April 2021
Orbit: 757 x 779 km, 74.1° (Epoch: 06 May)

Event Time Altitude Azimuth Distance (km) Brightness Sun altitude
Exits shadow 21:47:49 22° 211° (SSW) 1,619 5.4 -21.9°
Maximum altitude 21:51:14 78° 296° (WNW) 787 4.0 -22.2°
Drops below altitude 10° 21:56:28 10° 23° (NNE) 2,305 6.9 -22.6°
Sets 21:58:51 0° 25° (NNE) 3,233 7.7 -22.8°
